This demonstration page uses our WeatherBlox Daily Observations layout. Learn more.

Hourly Observations for June 15, 2015

Temp ( °F °C ) Dew Point ( °F °C ) Humidity (%) Winds ( mph kmh ) Pressure ( in mb ) Visibility ( mi km ) Precip ( " mm )
12:15 am 00:15 Cloudy 64 18 62 16.7 92 92 WNW 5 7 29.91 1013 10 16.0934 0 0
12:35 am 00:35 Partly Cloudy 64 17.8 62 16.6 93 93 WNW 7 11 29.91 1013 10 16.0934 0 0
12:55 am 00:55 Clear 64 17.8 62 16.5 92 92 NW 5 7 29.91 1013 10 16.0934 0 0
1:15 am 01:15 Partly Cloudy 64 17.8 61 16.1 90 90 WNW 6 9 29.91 1013 10 16.0934 0 0
1:35 am 01:35 Mostly Cloudy 64 17.8 61 16.1 90 90 NNW 7 11 29.94 1014 10 16.0934 0 0
1:55 am 01:55 Mostly Cloudy 65 18.2 61 16 87 87 NNW 12 19 29.94 1014 10 16.0934 0 0
2:15 am 02:15 Mostly Cloudy 64 18 61 16 88 88 NNW 9 15 29.94 1014 10 16.0934 0 0
2:35 am 02:35 Mostly Cloudy 64 18 60 15.3 84 84 NW 12 19 29.94 1014 10 16.0934 0 0
2:55 am 02:55 Cloudy with Light Rain 64 17.8 59 14.9 83 83 WNW 7 11 29.91 1013 10 16.0934 0 0
3:15 am 03:15 Cloudy with Light Rain 64 17.7 59 14.8 83 83 WNW 8 13 29.91 1013 10 16.0934 0 0
3:35 am 03:35 Mostly Cloudy 64 17.8 59 15 84 84 WNW 7 11 29.91 1013 10 16.0934 0 0
3:55 am 03:55 Mostly Cloudy 64 17.8 59 15.1 84 84 WNW 6 9 29.91 1013 10 16.0934 0 0
4:15 am 04:15 Partly Cloudy 64 17.5 60 15.3 87 87 NW 9 15 29.91 1013 10 16.0934 0 0
4:35 am 04:35 Clear 64 17.5 60 15.5 88 88 NW 10 17 29.91 1013 10 16.0934 0 0
4:55 am 04:55 Clear 64 17.5 60 15.3 87 87 NW 9 15 29.91 1013 10 16.0934 0 0
5:15 am 05:15 Clear 64 17.5 59 15.1 86 86 NW 7 11 29.94 1014 10 16.0934 0 0
5:35 am 05:35 Clear 63 17 59 15.2 89 89 WNW 9 15 29.94 1014 10 16.0934 0 0
5:55 am 05:55 Clear 62 16.7 59 15.1 90 90 NW 6 9 29.94 1014 10 16.0934 0 0
6:15 am 06:15 Sunny 62 16.8 60 15.5 92 92 WNW 8 13 29.97 1015 10 16.0934 0 0
6:35 am 06:35 Partly Cloudy 63 17 60 15.5 91 91 NNW 7 11 29.97 1015 10 16.0934 0 0
6:55 am 06:55 Partly Cloudy 63 17.1 60 15.7 92 92 NNW 7 11 29.97 1015 10 16.0934 0 0
7:15 am 07:15 Mostly Cloudy 64 17.5 61 16 91 91 N 7 11 29.97 1015 10 16.0934 0 0
7:35 am 07:35 Mostly Cloudy 64 17.9 61 16.2 90 90 N 10 17 30 1016 10 16.0934 0 0
7:55 am 07:55 Mostly Cloudy 64 18 61 16.2 89 89 N 9 15 30 1016 10 16.0934 0 0
8:15 am 08:15 Cloudy 65 18.1 62 16.4 90 90 N 13 20 30 1016 10 16.0934 0 0
8:35 am 08:35 Cloudy 65 18.1 62 16.4 90 90 N 14 22 30 1016 10 16.0934 0 0
8:55 am 08:55 Cloudy 66 18.7 62 16.7 88 88 NNE 15 24 30 1016 10 16.0934 0 0
9:15 am 09:15 Cloudy 67 19.5 63 17.2 87 87 N 15 24 30.03 1017 10 16.0934 0 0
9:35 am 09:35 Cloudy 68 20 63 17.1 83 83 N 16 26 30.03 1017 10 16.0934 0.01 0.254
9:55 am 09:55 Mostly Cloudy 67 19.6 62 16.6 83 83 NNE 15 24 30.03 1017 10 16.0934 0.01 0.254
10:15 am 10:15 Mostly Cloudy with Light Rain 67 19.2 62 16.5 84 84 NNE 15 24 30.03 1017 10 16.0934 0 0
10:35 am 10:35 Cloudy 66 19 62 16.4 85 85 NE 15 24 30.03 1017 10 16.0934 0 0
10:55 am 10:55 Cloudy 66 18.7 61 16.3 86 86 N 15 24 30.03 1017 10 16.0934 0 0
11:15 am 11:15 Cloudy 66 18.9 62 16.4 86 86 N 14 22 30.03 1017 10 16.0934 0 0
11:35 am 11:35 Cloudy 67 19.5 62 16.6 83 83 N 15 24 30.03 1017 10 16.0934 0 0
11:55 am 11:55 Cloudy with Thunderstorms 69 20.5 62 16.7 79 79 N 13 20 30 1016 10 16.0934 0 0
12:15 pm 12:15 Mostly Cloudy 70 21.1 63 17.1 78 78 N 13 20 30 1016 N/A 0.03 0.762
12:35 pm 12:35 Mostly Cloudy 70 21.3 63 17.2 78 78 N 16 26 30 1016 10 16.0934 0.03 0.762
12:55 pm 12:55 Mostly Cloudy 71 21.8 63 17.2 75 75 N 13 20 30 1016 10 16.0934 0.03 0.762
1:15 pm 13:15 Mostly Cloudy 72 22.3 63 17.2 73 73 N 14 22 30 1016 10 16.0934 0 0
1:35 pm 13:35 Mostly Cloudy 72 22.1 62 16.7 72 72 N 14 22 30 1016 10 16.0934 0 0
1:55 pm 13:55 Partly Cloudy 73 22.9 62 16.8 69 69 N 14 22 30 1016 10 16.0934 0 0
2:15 pm 14:15 Partly Cloudy 73 23 62 16.4 66 66 N 9 15 30 1016 10 16.0934 0 0
2:35 pm 14:35 Partly Cloudy 74 23.3 61 16.3 65 65 N 13 20 30 1016 10 16.0934 0 0
2:55 pm 14:55 Partly Cloudy 74 23.2 61 16.1 64 64 NNE 14 22 30 1016 10 16.0934 0 0
3:15 pm 15:15 Mostly Cloudy 73 23 61 15.9 64 64 NNE 9 15 30 1016 10 16.0934 0 0
3:35 pm 15:35 Mostly Cloudy 74 23.2 61 16.1 64 64 NNE 12 19 30 1016 10 16.0934 0 0
3:55 pm 15:55 Mostly Cloudy 74 23.6 62 16.5 65 65 NNE 12 19 30.03 1017 10 16.0934 0 0
4:15 pm 16:15 Mostly Cloudy 74 23.4 61 16.3 64 64 NE 12 19 30.03 1017 10 16.0934 0 0
4:35 pm 16:35 Cloudy 74 23.6 62 16.5 65 65 NNE 12 19 30.03 1017 10 16.0934 0 0
4:55 pm 16:55 Cloudy 74 23.2 62 16.5 66 66 NE 13 20 30.03 1017 10 16.0934 0 0
5:15 pm 17:15 Cloudy 74 23.1 61 16.1 65 65 NE 9 15 30.03 1017 10 16.0934 0 0
5:35 pm 17:35 Cloudy 72 22.3 63 17.1 73 73 NE 13 20 30.03 1017 10 16.0934 0 0
5:55 pm 17:55 Mostly Cloudy 73 22.6 63 17.3 72 72 NE 10 17 30 1016 10 16.0934 0 0
6:15 pm 18:15 Mostly Cloudy 73 22.7 63 17 70 70 NE 15 24 30 1016 10 16.0934 0 0
6:35 pm 18:35 Mostly Cloudy 72 22.3 62 16.4 69 69 NE 12 19 30.03 1017 10 16.0934 0 0
6:55 pm 18:55 Mostly Cloudy 72 22.2 62 16.5 70 70 ENE 10 17 30.03 1017 10 16.0934 0 0
7:15 pm 19:15 Mostly Cloudy 71 21.8 62 16.5 72 72 NE 13 20 30.03 1017 10 16.0934 0 0
7:35 pm 19:35 Mostly Cloudy 71 21.5 62 16.4 73 73 NE 12 19 30.03 1017 10 16.0934 0 0
7:55 pm 19:55 Partly Cloudy 71 21.5 61 16.3 72 72 NE 12 19 30.03 1017 10 16.0934 0 0
8:15 pm 20:15 Partly Cloudy 70 20.9 62 16.5 76 76 E 9 15 30.03 1017 10 16.0934 0 0
8:35 pm 20:35 Partly Cloudy 69 20.3 61 16.2 77 77 ENE 7 11 30.06 1018 10 16.0934 0 0
8:55 pm 20:55 Partly Cloudy 68 19.8 62 16.5 81 81 ENE 8 13 30.06 1018 10 16.0934 0 0
9:15 pm 21:15 Partly Cloudy 66 19 61 16.1 83 83 ENE 7 11 30.06 1018 10 16.0934 0 0
9:35 pm 21:35 Clear 65 18.2 60 15.6 85 85 ENE 6 9 30.06 1018 10 16.0934 0 0
9:55 pm 21:55 Clear 64 17.6 59 15.1 85 85 ENE 5 7 30.09 1019 10 16.0934 0 0
10:15 pm 22:15 Clear 63 17.3 58 14.6 84 84 ENE 5 7 30.12 1020 10 16.0934 0 0
10:35 pm 22:35 Clear 62 16.6 58 14.5 88 88 NE 3 6 30.12 1020 10 16.0934 0 0
10:55 pm 22:55 Clear 61 16.2 58 14.2 88 88 ENE 6 9 30.15 1021 10 16.0934 0 0
11:15 pm 23:15 Clear 61 16 57 14 88 88 ENE 6 9 30.15 1021 10 16.0934 0 0
11:35 pm 23:35 Clear 61 16 57 14 88 88 ENE 7 11 30.15 1021 10 16.0934 0 0
11:55 pm 23:55 Clear 60 15.6 57 13.9 90 90 ENE 6 9 30.15 1021 10 16.0934 0 0

Powered by AerisWeather